Location: Charlotte
(35.2270°N, 80.8430°W)
Time: 19:09:37
(UTC-04:00)

Daily predictions for brighter satellites

Satellite Brightness Start Highest point End
(mag) Time Altitude Azimuth Time Altitude Azimuth Time Altitude Azimuth
ATLAS 5 CENTAUR R/B 3.9 20:54:39 10° N 20:59:19 23° NE 21:04:12 10° E
Cosmos 921 Rocket 3.9 20:59:04 10° SSW 21:03:13 54° WNW 21:07:30 10° N
USA 234 4.4 21:02:57 10° E 21:07:18 19° ESE 21:11:39 10° SSE
Cosmos 1943 3.4 21:02:45 10° NNW 21:08:24 80° WSW 21:14:00 10° SSE
Aureole 3 Rocket 4.4 21:02:35 10° NNW 21:08:55 55° W 21:13:23 10° SSW
Meteor 2-3 Rocket 3.7 21:05:27 10° S 21:11:01 66° E 21:16:35 10° NNE
CZ-2D R/B 3.6 21:09:49 10° S 21:13:36 65° W 21:17:24 10° NNW
Abrixas rocket 3.5 21:10:38 10° NW 21:13:45 32° NNE 21:16:51 10° E
Meteor 1-26 Rocket 4.3 21:08:10 10° N 21:14:02 81° E 21:19:56 10° S
Okean 1-7 3.0 21:10:39 10° N 21:14:57 77° E 21:19:16 10° S
CZ-4 DEB 2.9 21:12:12 10° SSE 21:15:17 53° ENE 21:18:24 10° N
Cosmos 1844 Rocket 3.6 21:11:57 10° SSE 21:16:35 26° ESE 21:21:12 10° NE
Cosmos 2056 Rocket 4.0 21:12:07 10° SSE 21:16:52 37° E 21:21:34 10° NE
Cosmos 1371 Rocket 4.1 21:13:33 10° S 21:18:45 56° ESE 21:23:56 10° NNE
Cosmos 1340 Rocket 2.7 21:17:18 10° S 21:21:14 75° E 21:25:15 10° NNE
Cosmos 1461 3.7 21:19:23 10° SW 21:24:03 64° WNW 21:28:37 10° NNE
Cosmos 1939 Rocket 3.6 21:21:34 12° SE 21:24:44 34° ENE 21:28:17 10° N
Atlas Centaur 2 1.8 21:23:41 10° SW 21:26:53 32° S 21:29:21 16° ESE
Cosmos 1782 4.1 21:27:32 10° NNE 21:30:51 24° ENE 21:32:54 17° ESE
Cosmos 2263 Rocket 3.6 21:25:48 10° SW 21:31:10 43° WNW 21:36:32 10° N
CENTAUR R/B 3.3 21:28:57 10° NNW 21:36:47 60° NE 21:43:29 16° SE
SL-8 R/B 3.9 21:35:26 10° WSW 21:40:15 76° NW 21:45:04 10° NE
Cosmos 1408 4.4 21:40:57 15° E 21:40:57 15° E 21:43:03 10° NE
YAOGAN 6 4.3 21:40:07 16° E 21:41:02 17° ENE 21:43:23 10° NNE
SL-27 R/B 4.1 21:38:28 10° NNE 21:41:21 22° ENE 21:42:35 18° E
NOSS 2-2 (D) 3.4 21:38:07 10° SSW 21:42:09 83° ESE 21:46:40 10° NNE
Coronas F rocket 1.2 21:40:53 10° S 21:43:32 82° W 21:46:11 10° N
Cosmos 2184 Rocket 3.9 21:39:04 10° S 21:45:13 82° E 21:51:24 10° N
COS B Rocket 4.2 21:45:55 10° NNE 21:49:37 30° E 21:50:52 25° ESE
deb Chang Zheng 4 3.5 21:45:16 10° NNE 21:49:41 83° ESE 21:54:07 10° SSW
Cosmos 1606 3.9 21:50:09 10° NNE 21:53:29 26° ENE 21:54:19 24° E
Cosmos 1908 Rocket 4.1 21:53:55 24° SE 21:55:59 39° E 22:00:06 10° NNE
Cosmos 1624 Rocket 4.1 21:51:03 10° SSW 21:56:17 80° WNW 22:01:37 10° NNE
NOSS 2-2 (C) 3.8 21:52:50 10° SW 21:56:51 67° WNW 22:01:22 10° NNE
Cosmos 1892 3.4 21:54:05 10° SSW 21:57:49 53° W 22:01:35 10° N
H-2A R/B 4.0 21:56:04 12° E 21:57:49 14° ENE 22:00:28 10° NE
Envisat 2.9 21:53:57 17° SSE 21:57:51 79° ENE 22:02:56 10° N
SL-08 ROCKET BODY 4.4 21:52:22 10° S 21:58:27 87° W 22:04:27 10° N
Meteor 2-10 Rocket 3.8 21:53:50 10° N 21:59:41 82° W 22:04:45 13° S
Cosmos 1733 Rocket 3.3 21:57:39 10° SSW 22:02:03 69° W 22:06:27 10° N
Cosmos 1378 Rocket 4.3 22:03:23 10° NNE 22:07:17 32° ENE 22:08:06 30° ESE
Meteor 2-6 Rocket 4.3 22:01:59 10° N 22:07:56 72° E 22:11:37 24° SSE
CZ-4 SHROUD 3.5 22:08:15 43° E 22:08:26 44° ENE 22:11:24 10° N
SPOT 1/Viking Rocket 4.1 22:10:27 29° ESE 22:12:24 41° ENE 22:17:17 10° N
ERBS 2.8 22:12:45 10° NNW 22:16:07 46° NE 22:16:36 42° ENE
Cosmos 407 Rocket 3.6 22:14:45 10° N 22:19:58 59° ENE 22:21:52 37° SE
Cosmos 1452 Rocket 3.5 22:16:33 20° S 22:20:05 63° ESE 22:25:18 10° NNE
SPOT 5 3.0 22:19:22 27° S 22:22:14 84° WSW 22:27:36 10° NNW
Cosmos 1238 Rocket 3.3 22:19:35 10° NNE 22:21:59 33° ENE 22:21:59 33° ENE
H-2A R/B 2.9 22:24:05 21° SSW 22:26:44 45° W 22:30:52 10° NNW
ERS-1 Rocket 4.4 22:22:19 10° SSW 22:26:49 33° W 22:31:21 10° NW
COSMOS 2406 3.3 22:22:29 10° NNW 22:28:13 73° WSW 22:30:59 31° S
PSLV R/B 3.3 22:29:27 66° WNW 22:29:27 66° WNW 22:32:13 10° NNW
Cosmos 1190 Rocket 3.9 22:25:21 10° NNW 22:30:34 87° WSW 22:32:29 40° SSE
MetOp-B 4.1 22:28:35 34° SSE 22:31:03 87° WSW 22:36:26 10° NNW
Cosmos 1862 3.3 22:33:23 46° SSW 22:34:31 82° W 22:38:37 10° N
Cosmos 1140 Rocket 4.5 22:32:30 10° N 22:37:00 30° ENE 22:37:36 29° E
Terra 3.1 22:37:59 25° ENE 22:38:05 25° ENE 22:41:55 10° NNE
Nadezhda 3 Rocket 4.0 22:32:22 10° N 22:38:45 89° E 22:41:46 34° S
ARGOS 3.1 22:38:33 47° SE 22:40:01 68° ENE 22:45:21 10° N
Okean 2 Rocket 3.0 22:42:45 66° ESE 22:42:55 66° E 22:47:19 10° NNE
ATLAS 5 CENTAUR R/B 2.6 22:38:23 10° NW 22:44:29 67° WSW 22:46:55 39° S
Cosmos 2278 Rocket 2.1 22:43:31 30° SSW 22:46:26 80° ESE 22:52:08 10° NNE
PSLV R/B 3.9 22:43:43 10° WNW 22:46:43 56° NNW 22:46:43 56° NNW
Cosmos 1844 4.1 22:43:12 10° SSW 22:48:51 63° WNW 22:54:37 10° NNE
Cosmos 2341 Rocket 4.1 22:46:29 24° SSW 22:50:30 77° W 22:56:49 10° N
USA 234 3.2 22:44:12 10° NE 22:50:45 89° SE 22:57:17 10° SW
Abrixas rocket 4.2 22:47:50 10° WNW 22:49:51 23° WSW 22:49:51 23° WSW
CZ-4B R/B 3.6 22:47:47 10° N 22:52:43 67° WNW 22:54:54 32° SSW
CZ-4C R/B 4.3 22:54:26 37° NE 22:54:26 37° NE 22:57:18 10° N
Cosmos 1825 2.9 22:54:31 45° WSW 22:55:00 48° W 22:58:42 10° N
Cosmos 1833 Rocket 4.5 22:52:45 10° NNE 22:56:27 18° NE 22:57:19 17° ENE
Cosmos 1959 Rocket 4.4 22:58:48 54° SE 22:59:40 60° E 23:05:40 10° NNE
Cosmos 1844 Rocket 4.1 22:55:04 10° SW 23:00:14 36° WNW 23:05:25 10° N
Cosmos 676 Rocket 3.9 22:55:04 10° NNW 23:00:17 79° WSW 23:01:02 64° S
Cosmos 1184 Rocket 4.3 23:04:00 36° NW 23:04:00 36° NW 23:06:25 10° N
Timation 2 Rocket 4.3 22:58:52 10° N 23:04:36 45° ENE 23:05:20 43° E
Meteor 1-27 Rocket 4.4 22:59:21 10° NNW 23:04:41 49° W 23:06:41 33° SW
Cosmos 1954 Rocket 3.8 23:02:47 10° NNW 23:08:00 87° WSW 23:08:21 79° S
Cosmos 1782 Rocket 4.4 23:07:22 42° WSW 23:08:16 48° W 23:12:36 10° N
Cosmos 2082 Rocket 3.4 23:04:22 10° N 23:09:15 28° ENE 23:09:37 28° ENE
COSMOS 2487 4.0 23:11:30 10° NNW 23:13:44 36° NNW 23:13:44 36° NNW
Cosmos 1741 Rocket 4.4 23:10:04 10° N 23:14:51 48° ENE 23:14:51 48° ENE
Atlas Centaur 2 3.8 23:11:44 10° WSW 23:12:00 12° WSW 23:12:00 12° WSW
Cosmos 2297 3.6 23:16:56 70° E 23:16:56 70° E 23:22:24 10° NNE
IGS 5A 4.5 23:17:59 39° NNE 23:17:59 39° NNE 23:20:52 10° N
SL-8 Rocket 4.0 23:17:09 50° SSW 23:18:53 78° W 23:25:11 10° N
SL-08 RB Rocket 4.5 23:24:57 45° W 23:24:57 45° W 23:29:18 10° NNW
CARTOSAT-1 4.3 23:27:44 50° N 23:27:44 50° N 23:30:59 10° NNW
CENTAUR R/B 4.4 23:20:27 10° NW 23:27:12 30° WSW 23:30:41 22° SSW
Cosmos 1975 Rocket 4.1 23:23:40 10° NNW 23:27:24 40° W 23:27:24 40° W
FALCON 9 R/B 4.5 23:09:04 10° WNW 23:34:14 37° SW 23:37:44 31° SSW
H-2A R/B 2.2 23:36:42 69° W 23:36:42 69° W 23:41:58 10° NNW
Meteor 2-19 Rocket 4.3 23:37:44 75° ENE 23:37:44 75° ENE 23:43:39 10° N
Meteor 2-8 Rocket 4.4 23:45:56 10° N 23:51:55 82° WNW 23:51:55 82° WNW
Meteor 1-20 Rocket 4.4 23:54:18 66° N 23:54:18 66° N 23:59:02 10° N
